Location: Anglesey
(53.1800°N, 4.2200°W)
Time: 05:28:55
(UTC+00:00)

N. Korean satellite - Pass Details

Date: 16 October 2017
Orbit: 460 x 514 km, 97.2° (Epoch: 24 November)

Event Time Altitude Azimuth Distance (km) Brightness Sun altitude
Rises 18:55:48 0° 160° (SSE) 2,534 10.1 -6.3°
Reaches altitude 10° 18:57:53 10° 158° (SSE) 1,651 9.1 -6.6°
Maximum altitude 19:01:24 72° 74° (ENE) 503 6.4 -7.2°
Drops below altitude 10° 19:04:55 10° 350° (N) 1,640 9.3 -7.7°
Sets 19:06:58 0° 348° (NNW) 2,516 10.3 -8.0°
